Юго-Западный административный округ

Россия / Московская область     55°39′45″N   37°34′34″E
темп.,
°C
ветер,
м/с
пор.,
м/с
влажн.,
%
обл.,
%
осадки,
мм/ч
давл.,
гПа
погр.,
м
21 апреля, ср
ср2100:00+3всв3896100 1.1 1012567
03:00+3св3898100 2.1 1008450
06:00+2ссв2498100 2.5 1004211
09:00+2зюз2499100 4.2 1004226
12:00+3зюз4787100 0.1 1005837
15:00+4зюз4778100 0.1 10071093
18:00+5юз3679100 0.1 1008667
21:00+5ююз3784100 0.1 1010315
22 апреля, чт
чт2200:00+4ююз3889100 0.1 1011337
03:00+4ююз388990 0.1 1012337
06:00+3ююз4109184 0.0 1013348
09:00+6ююз5979100 0.0 1014540
12:00+10ююз5868100 0.0 1014997
15:00+13ююз675765 0.1 10141487
18:00+12ю486335 0.0 1014967
21:00+10ююв4118099 0.4 1014414
23 апреля, пт
пт2300:00+9ю4118675 0.8 1014390
03:00+7ю4119173 0.8 1014334
06:00+7ю514875 0.0 1013433
09:00+12ю6146689 0.1 10131364
12:00+15ю8145051 0.4 10132096
15:00+15ююз71252100 1.4 10121999
18:00+10зюз3475100 1.1 1013650
21:00+8ссз2282100 2.2 1012298
24 апреля, сб
сб2400:00+6сз4488100 4.5 1010337
03:00+4з4695100 12.3 1009519
06:00+3з2697100 7.8 1008458
09:00+4з3795100 9.7 1008536
12:00+7з3666100 0.9 10081171
15:00+9зюз674293 1.1 10081942
18:00+9з56385 0.0 10072114
21:00+6з37585 0.1 1008753
25 апреля, вс
вс2500:00+4зюз49655 0.0 1008473
03:00+2зюз49805 0.0 1009432
06:00+1юз498926 0.0 1008457
09:00+3зюз5879100 0.0 1008800
12:00+3юз5972100 0.1 10091199
15:00+6з595274 0.1 10091584
18:00+7зюз484921 0.2 10081540
21:00+4юз375933 0.3 1008446